SCP
1 1 0 0 0 0 0 0 0 0 0 0 0 0 0 0 0 0 0 0 0 0 0 0 0 0 0 0 0 0 0 0 0 0 0 0 0 0 1 1 1 1 1 1 1 1 2 3 4
1 1 0 0 0 0 0 0 0 0 0 0 0 0 0 0 0 0 0 0 0 0 0 0 0 0 0 0 0 0 0 0 0 0 0 0 0 0 0 1 1 1 1 1 1 2 2 4 5
1 0 0 0 0 0 0 0 0 0 0 0 0 0 0 0 0 0 0 0 0 0 0 0 0 0 0 0 0 0 0 0 0 0 0 0 0 0 0 0 0 1 1 1 1 1 2 3 4
0 0 0 0 0 0 0 0 0 0 0 0 0 0 0 0 0 0 0 0 0 0 0 0 0 0 0 0 0 0 0 0 0 0 0 0 0 0 0 0 0 0 1 1 1 1 1 2 2
0 0 0 0 0 0 0 0 0 0 0 0 0 0 0 0 0 0 0 0 0 0 0 0 0 0 0 0 0 0 0 0 0 0 0 0 0 0 0 0 0 0 0 1 1 1 1 1 1
0 0 0 0 0 0 0 0 0 0 0 0 0 0 0 0 0 0 0 0 0 0 0 0 0 0 0 0 0 0 0 0 0 0 0 0 0 0 0 0 1 1 0 1 1 1 1 1 1
0 0 0 0 0 0 0 0 0 0 0 0 0 0 0 0 0 0 0 0 0 0 0 0 0 0 0 0 0 0 0 0 0 0 0 0 0 0 0 1 1 1 0 0 1 1 1 1 1
0 0 0 0 0 0 0 0 0 0 0 0 0 0 0 0 0 0 0 0 0 0 0 0 0 0 0 0 0 0 0 0 0 0 0 0 0 0 0 1 1 1 0 0 0 0 1 1 0
0 0 0 0 0 0 0 0 0 0 0 0 0 0 0 0 0 1 1 1 0 0 0 0 0 0 0 0 0 0 0 0 0 0 0 0 0 0 0 0 0 0 0 0 1 1 0 0 0
0 0 0 0 0 0 0 0 0 0 0 0 0 0 0 0 0 1 1 1 0 0 0 0 0 0 0 0 0 0 0 0 0 0 0 0 0 0 0 0 0 0 0 0 1 0 0 0 0
0 0 0 0 0 0 0 0 0 0 0 0 0 0 0 0 0 1 1 1 1 0 0 0 0 0 0 0 0 0 0 0 0 0 0 0 0 0 0 0 0 0 0 0 0 0 0 0 0
0 0 0 0 0 0 0 0 0 0 0 0 0 0 0 0 0 0 1 1 1 0 0 0 0 0 0 0 0 0 0 0 0 0 0 0 0 0 0 0 0 0 0 0 0 0 0 0 0
0 0 0 0 0 0 0 1 0 0 0 0 0 0 0 0 0 0 0 0 0 1 1 1 1 1 0 0 0 0 0 0 0 0 0 0 0 0 0 0 0 0 0 0 0 0 0 0 0
0 0 0 0 0 0 1 1 0 0 0 1 1 0 0 0 0 0 0 0 0 0 1 1 1 1 1 0 0 0 0 0 0 0 0 0 0 0 0 0 0 0 0 0 0 0 0 0 0
0 0 0 0 0 0 0 0 0 0 0 1 1 1 1 0 0 0 0 0 0 0 0 1 1 1 1 0 0 0 0 0 0 0 0 0 0 0 0 0 0 0 0 0 0 0 0 0 0
0 0 0 0 0 0 0 0 0 0 0 1 1 1 1 1 0 0 0 0 0 0 0 1 1 1 1 0 0 0 0 0 0 0 0 0 0 0 0 0 0 0 0 0 0 0 0 0 0
0 0 0 0 0 0 0 0 0 0 0 1 1 1 1 1 1 0 0 0 0 0 0 1 1 1 1 0 0 0 0 0 0 0 0 0 0 0 0 0 0 0 0 0 0 0 0 0 0
0 0 0 0 0 0 0 0 0 0 0 0 1 1 1 1 1 0 0 0 0 0 1 1 2 1 1 0 0 0 0 0 0 0 0 0 0 0 0 0 0 0 0 0 0 0 0 0 0
0 0 0 0 0 0 0 0 0 0 0 0 1 1 1 1 1 1 0 0 0 0 1 2 2 1 1 1 0 0 0 0 0 0 0 0 0 0 0 0 0 0 0 0 0 0 0 0 0
0 0 0 0 0 0 0 0 0 0 0 0 0 1 1 1 1 0 0 0 0 1 1 2 2 2 1 1 1 0 0 0 0 0 0 0 0 0 0 0 0 0 0 0 0 0 0 0 0
0 0 0 0 0 0 0 0 0 0 0 0 0 1 1 1 1 0 0 0 0 1 2 2 2 2 2 1 1 1 1 0 0 0 0 0 0 0 0 0 0 0 0 0 0 0 0 0 0
0 0 0 0 0 0 0 0 0 0 0 0 0 0 1 1 1 1 0 0 0 1 2 2 3 2 2 2 1 1 1 0 0 0 0 0 0 0 0 0 0 0 0 0 0 0 0 0 0
0 0 0 0 0 0 0 0 0 0 0 0 0 0 0 1 1 1 1 0 0 1 2 3 3 3 2 2 1 1 1 0 0 0 0 0 0 0 0 0 0 0 0 0 0 0 0 0 0
0 0 0 0 0 0 0 0 0 0 0 0 0 0 0 0 1 1 1 1 1 2 2 3 3 3 2 2 1 1 0 0 0 0 0 0 0 0 0 0 0 0 0 0 0 0 0 0 0
0 0 0 0 0 0 0 0 0 0 0 0 0 0 0 0 1 1 1 1 2 3 3 3 3 3 2 1 1 1 0 0 0 0 0 0 0 0 0 0 0 0 0 0 0 0 0 0 0
0 0 0 0 0 0 0 0 0 0 0 0 0 0 0 0 1 1 2 2 3 3 3 3 3 3 2 1 1 1 0 0 0 0 0 0 0 0 0 0 0 0 0 0 0 0 0 0 0
0 0 0 0 0 0 0 0 0 0 0 0 0 0 0 0 1 2 3 4 4 4 4 4 3 3 2 1 1 1 0 0 0 0 0 0 0 0 0 0 0 0 0 0 0 0 0 0 0
0 0 0 0 0 0 0 0 0 0 0 0 0 0 0 0 1 2 3 5 5 5 4 3 3 2 2 1 1 1 0 0 0 0 0 0 0 0 1 0 0 0 0 0 0 0 0 0 0
0 0 0 0 0 0 0 0 0 0 0 0 0 0 0 0 1 1 3 4 5 5 3 3 2 2 1 1 1 1 1 0 0 0 0 0 0 0 1 1 0 0 0 0 0 0 0 0 0
0 0 0 0 0 0 0 0 0 0 0 0 0 0 0 0 0 1 2 3 4 4 2 2 2 1 1 1 1 1 1 1 0 0 0 0 0 0 0 1 1 0 0 0 0 0 0 0 0
Wind_Speed
2 1 2 3 6 6 3 1 1 2 3 3 6 8 7 5 4 4 2 5 7 5 3 5 8 8 8 8 9 9 9 10 10 10 10 11 11 11 11 11 12 12 12 12 13 12 13 13 13
1 1 3 5 6 4 2 0 2 2 4 4 6 6 6 5 3 4 3 6 8 6 4 5 8 8 8 8 9 9 9 9 10 10 10 10 11 11 11 11 12 12 12 12 13 13 14 15 15
1 1 3 4 3 3 3 2 3 2 3 4 4 4 5 4 3 3 4 8 7 6 4 5 8 8 8 8 8 9 9 9 9 10 10 10 10 10 11 11 11 12 12 12 12 13 14 14 15
2 4 5 5 4 1 4 4 4 4 4 4 5 5 4 2 4 5 8 9 8 5 4 5 8 8 8 8 8 8 8 8 9 9 9 10 10 10 10 10 11 11 12 13 13 13 13 14 14
4 4 6 3 2 1 2 4 4 4 3 4 6 5 3 2 6 8 9 8 8 5 4 5 8 8 8 7 8 7 7 7 8 8 9 9 10 10 10 10 10 11 12 12 12 13 13 13 14
4 5 5 2 2 1 1 3 6 5 5 6 7 5 2 2 6 7 8 7 7 7 5 4 8 8 7 7 7 7 7 7 7 8 8 9 9 10 10 10 11 11 11 12 12 12 13 13 13
4 4 2 2 1 1 2 2 5 6 5 4 6 6 2 2 4 6 7 7 6 6 5 3 3 4 5 6 6 6 6 6 7 7 8 8 9 10 10 10 10 11 11 11 12 12 12 13 13
5 5 2 1 2 1 0 3 4 6 4 4 5 7 5 5 5 5 6 6 6 5 4 3 3 2 2 2 4 5 5 6 6 6 7 8 9 9 9 9 9 10 10 10 10 11 11 12 13
4 5 1 2 3 1 2 3 3 4 5 4 3 4 6 8 7 6 5 4 4 5 3 3 3 2 2 1 2 3 3 4 4 4 7 6 4 4 4 7 9 9 9 9 9 9 10 11 11
5 3 2 3 4 3 2 3 3 4 5 4 4 5 7 7 7 7 6 5 4 4 4 3 4 3 2 1 1 1 1 2 1 2 3 2 2 2 4 6 8 9 8 8 8 9 9 7 4
3 3 2 1 2 3 3 2 3 6 3 4 7 8 8 6 6 7 6 6 6 5 5 4 4 3 3 1 1 1 1 1 1 2 2 2 2 2 2 2 3 4 5 4 5 5 4 4 3
2 1 2 2 2 2 2 2 3 4 5 7 10 10 8 7 7 7 7 5 5 5 4 4 4 4 3 2 2 1 1 1 1 1 2 3 2 2 2 2 2 2 2 2 3 3 4 4 4
1 1 1 2 3 3 3 2 3 2 4 8 9 9 8 7 6 5 6 6 5 5 4 4 5 5 3 3 2 2 2 2 2 2 2 3 2 2 2 1 2 2 2 2 3 3 4 4 4
2 1 1 1 1 2 4 2 3 3 6 8 8 8 8 7 6 5 6 5 5 5 5 4 5 5 4 3 2 2 1 2 2 2 2 3 3 2 2 2 2 2 2 2 3 3 3 3 3
1 2 3 2 2 2 4 1 2 4 7 8 7 7 7 7 6 7 7 7 6 5 5 5 5 4 4 4 3 3 2 2 2 2 2 3 3 3 3 3 2 2 2 3 3 4 3 4 4
2 2 2 4 3 3 5 3 4 4 7 7 6 6 6 6 7 6 7 6 6 5 5 5 5 5 4 4 3 2 2 2 2 2 2 3 3 4 3 3 2 2 3 3 3 3 4 4 3
2 1 3 4 3 3 4 4 4 4 8 7 6 6 6 5 5 5 6 7 6 6 6 5 5 5 5 4 3 3 2 2 2 2 2 2 3 4 4 3 2 3 3 3 3 3 3 3 3
3 2 2 3 3 3 3 4 4 4 7 7 6 5 6 7 6 6 6 6 6 6 6 5 5 5 5 3 3 2 2 2 1 2 2 3 3 4 4 3 3 3 3 3 3 3 3 3 3
3 2 3 5 4 3 4 4 4 5 4 5 5 5 6 7 5 5 6 6 5 5 5 5 5 4 4 3 2 2 1 1 1 1 2 3 3 3 4 3 3 3 3 3 3 3 4 2 2
2 2 3 4 2 2 2 3 3 4 6 7 8 7 7 6 4 4 4 4 5 6 5 5 5 4 4 3 3 2 2 1 1 1 2 2 3 3 4 4 3 3 3 3 3 3 2 1 1
1 2 3 2 2 2 2 3 2 2 1 2 4 5 6 8 7 6 5 5 5 5 6 6 5 5 4 3 3 3 3 2 2 1 1 1 2 3 3 4 4 3 3 3 3 3 3 2 0
3 4 2 1 1 3 1 2 4 2 1 0 1 2 4 6 7 6 6 5 5 5 5 6 5 5 4 4 5 5 4 2 2 1 1 0 1 2 3 4 4 3 3 3 3 2 2 3 1
4 3 1 1 1 1 1 2 5 1 2 3 2 2 3 4 7 7 7 7 5 5 5 5 5 4 4 5 5 5 3 2 1 1 1 1 0 1 2 3 3 3 3 3 3 2 2 2 2
0 4 5 4 4 2 4 4 5 3 6 4 3 2 2 3 4 6 6 5 4 5 5 5 5 4 4 5 5 5 5 3 3 2 1 0 0 1 1 2 3 3 3 3 3 3 3 2 2
5 6 5 5 3 5 2 3 5 4 4 6 6 4 3 3 4 5 6 5 5 5 5 5 6 4 4 5 4 4 4 5 4 3 2 2 1 0 1 2 2 2 2 2 2 2 2 2 2
1 7 5 3 3 5 3 2 4 2 2 3 4 4 3 3 2 4 6 6 6 6 6 6 6 5 4 5 4 3 4 3 2 2 2 2 2 2 1 2 2 2 2 2 2 2 2 2 2
1 1 5 5 1 2 3 2 3 2 2 2 3 3 3 3 3 3 4 6 6 6 5 6 6 5 4 4 4 3 3 3 2 2 2 2 1 1 2 2 2 2 2 2 3 2 2 2 2
3 3 4 3 1 3 3 3 3 3 2 2 2 3 3 3 3 2 3 4 5 5 4 4 5 5 4 4 4 3 3 2 2 2 2 1 1 1 2 2 2 2 2 2 2 2 1 2 2
1 1 2 3 3 3 3 5 4 6 5 5 4 4 4 3 3 3 3 3 4 4 4 4 4 4 4 4 3 3 2 2 2 2 2 2 1 2 2 3 2 2 2 2 2 2 2 2 1
2 3 4 3 3 3 3 6 3 3 4 4 3 3 3 3 3 3 2 3 3 4 4 4 4 4 4 4 4 4 3 2 2 2 1 2 2 2 2 2 2 2 2 2 2 2 2 2 2
Wind_Direction
288 310 90 60 55 55 64 21 108 55 50 56 72 81 84 67 87 130 213 141 132 130 112 95 85 79 79 76 72 72 74 75 75 76 78 78 77 78 79 79 78 76 76 75 74 72 72 85 92
351 3 62 57 75 74 57 205 97 102 141 123 85 83 83 75 92 119 123 139 133 131 120 105 96 87 84 80 76 77 79 79 80 81 81 81 81 82 82 82 81 79 78 79 77 75 75 82 85
321 52 72 62 80 132 155 193 147 101 108 100 81 60 77 110 115 134 155 144 130 126 119 112 103 94 87 83 82 81 82 81 83 85 84 83 83 84 84 84 83 82 81 82 81 80 80 82 84
53 44 54 66 77 153 160 179 143 112 80 76 97 71 57 97 136 144 139 134 126 127 127 118 109 101 94 88 87 85 84 85 86 89 88 86 85 86 88 87 85 85 85 84 84 83 83 84 86
68 68 58 61 67 69 134 140 121 105 97 89 95 92 66 38 116 128 134 133 133 137 142 131 117 110 101 95 94 91 89 90 90 91 91 90 90 90 91 90 89 89 89 86 85 84 83 84 84
57 66 75 80 75 80 101 124 111 101 107 111 105 108 115 142 123 131 133 136 141 143 145 139 128 121 111 104 102 99 94 97 99 94 94 93 91 91 92 91 90 90 90 89 87 85 83 83 84
99 86 104 129 115 82 121 108 109 111 107 128 125 111 137 172 156 142 133 135 140 139 137 143 141 126 122 114 109 101 96 101 102 102 98 96 94 95 95 93 91 90 90 89 88 85 85 84 83
121 98 79 102 118 113 108 97 113 111 107 114 115 131 163 194 166 135 126 128 132 135 141 147 148 135 130 130 118 110 105 109 110 106 102 101 96 95 98 94 95 95 93 91 88 85 85 85 84
84 78 112 176 150 160 136 107 99 91 93 72 89 146 164 159 140 121 115 111 126 138 154 159 152 154 155 153 132 108 101 96 101 99 102 98 79 73 85 95 98 98 96 92 90 88 87 83 82
84 108 206 192 163 155 156 134 125 91 86 79 76 95 129 138 136 137 143 147 149 157 170 165 165 168 169 160 111 73 74 71 73 75 86 89 96 87 86 86 93 92 92 90 89 88 84 72 66
125 160 181 145 146 134 135 140 118 119 121 162 151 151 149 144 145 151 157 160 164 164 165 169 168 170 170 157 128 92 69 71 70 75 92 96 87 80 72 64 64 68 74 65 69 66 64 72 78
119 187 158 166 147 124 136 129 106 137 183 170 158 157 156 156 161 161 160 161 155 151 163 170 159 157 165 141 126 121 111 90 85 91 102 105 97 85 86 83 74 61 63 73 68 69 74 78 80
112 199 170 173 143 144 117 111 124 160 164 151 151 151 157 162 165 163 160 155 143 145 155 149 142 146 146 132 133 123 122 118 114 100 102 114 113 110 100 92 84 79 78 82 83 84 81 80 79
191 174 174 170 159 152 129 132 117 192 156 150 154 160 164 166 168 156 150 149 147 149 152 146 142 142 133 129 127 127 126 107 101 108 124 119 118 118 107 94 87 86 94 95 95 91 84 76 81
116 68 343 268 193 184 119 15 227 193 156 158 166 168 166 172 164 164 166 161 161 154 149 146 144 131 128 129 131 121 123 113 107 114 119 116 116 117 110 104 97 93 97 92 84 78 78 80 79
37 45 304 273 199 186 130 229 259 187 158 170 176 174 172 177 179 177 165 161 160 150 148 150 138 130 127 124 122 114 114 114 108 108 113 119 119 116 107 104 101 99 93 91 90 83 81 73 73
12 230 250 284 220 165 148 218 245 186 163 175 178 181 181 176 181 179 169 163 161 155 149 146 139 137 136 131 120 110 102 96 97 99 102 114 121 116 110 110 107 100 91 90 99 82 91 87 79
239 234 252 256 250 155 167 223 232 200 175 182 181 185 182 180 189 177 169 165 160 156 148 145 141 137 133 121 100 84 76 72 80 103 110 112 115 113 110 113 108 100 96 87 91 91 79 93 96
209 220 257 262 247 170 198 223 228 212 189 184 181 186 186 191 190 174 168 160 153 151 146 146 140 144 137 129 127 122 120 102 80 115 120 120 124 122 116 120 112 109 114 120 116 107 91 82 96
230 239 274 287 261 173 204 243 228 200 198 191 184 187 187 177 163 169 164 157 157 157 153 147 147 150 156 156 153 150 141 133 129 116 105 124 130 135 132 132 132 128 119 114 117 116 109 120 118
234 206 230 247 335 7 86 335 286 273 224 188 184 184 181 173 174 173 158 156 158 158 160 157 155 154 155 144 117 97 72 51 51 64 73 123 141 141 135 141 141 143 137 143 146 142 137 152 220
246 242 227 211 60 282 142 266 270 243 283 215 203 187 184 179 174 170 163 164 166 170 165 157 156 154 145 135 136 140 142 152 185 180 168 86 128 140 137 140 143 146 146 155 168 155 149 144 153
227 254 244 233 178 321 305 186 278 190 234 245 227 213 202 183 176 175 174 175 170 160 154 153 150 143 140 136 143 143 142 160 151 115 98 72 54 127 137 141 140 144 153 164 162 150 150 150 158
158 26 18 40 68 298 239 171 265 222 212 211 210 205 197 176 176 174 174 165 155 147 142 141 140 131 133 135 139 144 150 150 131 120 119 101 55 68 115 136 137 143 149 166 171 167 162 163 156
63 70 23 360 7 261 258 163 244 236 203 185 182 190 192 160 160 160 159 159 157 151 149 145 143 138 137 136 142 149 152 150 153 159 164 154 129 118 216 139 143 148 160 166 157 158 177 173 160
183 134 151 208 242 281 331 217 256 258 183 156 156 159 139 134 143 163 168 166 163 161 158 150 149 148 145 143 151 146 146 142 149 162 160 164 180 192 181 145 145 155 158 154 144 145 175 167 168
137 185 178 156 259 280 288 300 318 18 63 93 126 134 155 159 151 159 165 161 159 160 162 160 154 149 151 150 146 140 139 138 153 164 153 162 176 174 156 145 142 148 146 144 140 141 159 150 154
150 155 82 98 167 276 288 261 241 229 221 178 170 179 186 163 153 152 160 161 163 166 157 153 155 161 159 151 152 145 154 152 147 144 154 171 190 153 137 130 132 127 127 129 129 132 145 132 137
0 65 109 133 167 177 256 270 234 194 189 183 201 201 187 169 168 177 175 167 152 140 151 156 154 153 155 154 150 144 154 148 137 138 164 170 152 136 138 144 137 133 125 116 119 125 125 129 131
178 182 144 162 244 190 196 264 290 175 177 178 201 207 190 182 182 179 170 151 147 152 163 160 158 161 165 164 155 152 152 143 139 152 170 160 150 143 141 145 141 144 137 127 129 140 127 126 136